Regional Weather Roundup
Issued by NWS Glasgow, MT

Home | Current Version | Previous Version | Text Only | Print | Product List | Glossary On
Versions: 1 2 3 4 5 6 7 8 9 10 11 12 13 14 15 16 17 18 19 20 21 22 23 24 25 26 27 28 29 30 31 32 33 34 35 36 37 38 39 40 41 42 43 44 45 46 47 48 49 50
000
ASUS45 KGGW 271315
RWRGGW
HOURLY WEATHER ROUNDUP FOR NORTHEAST MONTANA
NATIONAL WEATHER SERVICE GLASGOW MONTANA
600 AM MST FRI FEB 27 2015

NOTE: "FAIR" INDICATES FEW OR NO CLOUDS BELOW 12,000 FEET WITH NO
SIGNIFICANT WEATHER AND/OR OBSTRUCTIONS TO VISISBILITY.

NORTHEAST MONTANA


CITY           SKY/WX    TMP DP  RH WIND       PRES   REMARKS
GLASGOW        CLEAR     -1  -8  72 E12       30.14F WCI -18
PLENTYWOOD       N/A     -4  -7  87 SE7         N/A
WOLF POINT     PTCLDY    -3  -9  75 E7        30.23F
JORDAN           N/A     -2  -7  79 E7        30.10F
WINNETT          N/A      7   2  80 SE7G15      N/A
SIDNEY         PTCLDY    -8 -24  45 CALM      30.29F
GLENDIVE       CLEAR      0  -8  71 SE5       30.20F
MALTA            N/A     -3  -5  90 NE2         N/A
SCOBEY           N/A     -4 -13  65 SE6       30.13

FORT PECK REPORTS


CITY           SKY/WX    TMP DP  RH WIND       PRES   REMARKS
FORT PECK        N/A      3  -4  72 E12         N/A  WCI -13
THE PINES        N/A      2  -3  80 S6          N/A

SOUTHEAST MONTANA


CITY           SKY/WX    TMP DP  RH WIND       PRES   REMARKS
BILLINGS       CLEAR      1  -4  79 SW8       30.00F
MILES CITY     CLEAR      1  -6  72 SE12      30.15F WCI -16
BAKER          CLEAR     -5 -11  75 SE10      30.18F WCI -23
LIVINGSTON     PTCLDY     5  -1  76 NW9       29.91F

CENTRAL MONTANA


CITY           SKY/WX    TMP DP  RH WIND       PRES   REMARKS
HAVRE          PTCLDY     1  -4  79 CALM      30.05S
LEWISTOWN      MOCLDY    -4 -10  75 SE7       29.89S
GREAT FALLS    PTCLDY    10   3  73 S6        29.90F
CUT BANK       MOCLDY     4   1  88 N6        29.94S
HELENA           N/A     10   4  76 MISG      29.95
BUTTE          CLOUDY     6   1  80 CALM      29.83S
BOZEMAN        CLEAR      7   1  76 S6        29.92F

WESTERN MONTANA


CITY           SKY/WX    TMP DP  RH WIND       PRES   REMARKS
MISSOULA       CLOUDY    25  12  58 E16       29.90S
KALISPELL      NOT AVBL

NORTH DAKOTA


CITY           SKY/WX    TMP DP  RH WIND       PRES   REMARKS
WILLISTON      MOCLDY   -11 -15  82 CALM      30.29F
DICKINSON      CLEAR     -6 -12  75 S10       30.24F WCI -24
MINOT          MOCLDY    -7 -13  75 SW13      30.34F WCI -27
BISMARCK       PTCLDY   -13 -18  78 E5        30.42S

SOUTHERN SASKATCHEWAN


CITY           SKY/WX    TMP DP  RH WIND       PRES   REMARKS
REGINA         PTCLDY   -17 -22  76 SE9       30.21F
MOOSE JAW      PTCLDY    -2 -11  65 S18       30.17F WCI -24
ESTEVAN        MOCLDY   -18 -24  76 S6        30.27F
SWIFT CURRENT  MOCLDY     0  -6  78 S16       30.04F WCI -21




USA.gov is the U.S. government's official web portal to all federal, state and local government web resources and services.